Flag Weather past 2 weeks in Rancho Cucamonga, California, U.S.A.

Now
77 °F

Partly sunny.


Feels Like: 76 °F
Forecast: 58 / 85 °F
Wind: No wind

Location: Ontario International Airport

Current Time: Nov 27, 2014 at 10:33:06 AM

Latest Report: Nov 27, 2014 at 9:53 AM


Visibility: 10 mi

Pressure: 30.11 "Hg

Humidity: 12%

Dew point: 21 °F

Location of Rancho CucamongaLocation

Historic Weather in Rancho Cucamonga — Graph

°F

Rancho Cucamonga temperature yesterday

Maximum temperature yesterday: 87 °F (at 2:53 PM)
Minimum temperature yesterday: 51 °F (at 2:53 AM)
Average temperature yesterday: 67 °F

Past Weeks' High & Low Weather Summary

 TemperatureHumidityPressure
High87 °F (Nov 26, 2:53 PM)93% (Nov 23, 3:53 AM)30.39 "Hg (Nov 23, 3:53 AM)
Low46 °F (Nov 18, 1:53 AM)2% (Nov 16, 1:53 PM)29.91 "Hg (Nov 21, 4:53 AM)
Average62 °F45%30.08 "Hg
* Reported Nov 12 8:53 AM — Nov 27 8:53 AM, Rancho Cucamonga, Weather by CustomWeather, © 2014

Note: Actual official high and low records may vary slightly from our data, if they occured in-between our weather recording intervals... More about our weather records

Advertising

Rancho Cucamonga weather history for previous 24 hours

 ConditionsComfort  
Time TempWeatherWind HumidityBarometerVisibility
8:53 AM
Nov 27
70 °FPartly sunny.No wind21%30.13 "Hg10 mi
7:53 AM61 °FScattered clouds.No wind31%30.12 "Hg10 mi
6:53 AM51 °FPassing clouds.5 mph42%30.12 "Hg10 mi
5:53 AM53 °FClear.3 mph39%30.10 "Hg10 mi
4:53 AM53 °FClear.5 mph39%30.09 "Hg10 mi
3:53 AM55 °FClear.5 mph35%30.09 "Hg10 mi
2:53 AM53 °FClear.3 mph39%30.10 "Hg10 mi
1:53 AM55 °FClear.No wind40%30.11 "Hg10 mi
12:53 AM54 °FClear.3 mph41%30.11 "Hg10 mi
11:53 PM
Nov 26
57 °FClear.5 mph37%30.12 "Hg10 mi
10:53 PM59 °FClear.3 mph33%30.14 "Hg10 mi
9:53 PM62 °FClear.No wind30%30.14 "Hg10 mi
8:53 PM60 °FClear.3 mph32%30.14 "Hg10 mi
7:53 PM63 °FClear.3 mph30%30.14 "Hg10 mi
6:53 PM72 °FClear.3 mph18%30.13 "Hg10 mi
5:53 PM78 °FClear.No wind12%30.12 "Hg10 mi
4:53 PM81 °FClear.3 mph11%30.11 "Hg10 mi
3:53 PM85 °FSunny.5 mph9%30.11 "Hg10 mi
2:53 PM87 °FSunny.8 mph8%30.11 "Hg10 mi
1:53 PM86 °FSunny.6 mph8%30.12 "Hg10 mi
12:53 PM84 °FSunny.5 mph10%30.14 "Hg10 mi
11:53 AM82 °FSunny.6 mph10%30.17 "Hg10 mi
10:53 AM78 °FSunny.3 mph10%30.21 "Hg10 mi
Weather by CustomWeather, © 2014

See weather overviewHow to use our weather pages